COSMOS 1181

导读

COSMOS 1181是苏联(CIS)于1980年5月20日发射的卫星,隶属于苏联“宇宙”(COSMOS)卫星系列。作为冷战时期苏联太空活动的产物,该卫星延续了“宇宙”系列多用途、军事化的发展脉络,承担航天技术试验、对地观测或空间环境探测任务,是苏联近地轨道空间部署的重要组成,一定程度反映了当时美苏太空竞赛的发展态势,目前已完成任务使命,结束在轨运行。

基本信息
目录编号:
11803
目录名称:
COSMOS 1181
国际标识:
1980-039A
轨道中心:
EARTH
卫星名称:
COSMOS 1181
卫星全名:
--
卫星状态:
在轨 (已飞行16869 天)
发射日期:
1980-05-20 UTC
国别 :
俄罗斯(独联体) (CIS)
星等 :
--
轨道信息
数据来源 国际轨道数据
星历时间: 2026-07-27T16:29:01+0800
13小时前
查看轨道信息
半长轴: 7362.643km
偏心率: 0.0023479
轨道倾角: 82.942°
近地点辐角 125.823°
升交点赤经 186.067°
平近点角 35.954°
近地点: 967.219km
远地点: 1001.793km
周期: 104.788分钟
每日圈数: 13.742072
详细信息
使用方式:
暂无
2D轨道图
3D轨道图
轨道高度分析图
轨道倾角分析图
轨道综合分析图
查看轨道综合分析图